Home > Time Zones > World Clock > Weather > Japan > Tsu > Past weeks

Flag for Japan Weather past 2 weeks in Tsu, Japan

Now
44 °F

Quite cool.


Feels Like: 40 °F
Forecast: 38 / 53 °F
Wind: 7 mph from North

Location: Tsu

Current Time: Mar 3, 2015 at 8:57:12 PM

Latest Report: Mar 3, 2015 at 8:00 PM


Visibility: N/A

Pressure: 29.90 "Hg

Humidity: 89%

Dew point: 41 °F

Location of TsuLocation

Historic Weather in Tsu — Graph

°F

Tsu temperature yesterday

Maximum temperature yesterday: 51 °F (at 2:00 PM)
Minimum temperature yesterday: 40 °F (at 11:00 PM)
Average temperature yesterday: 45 °F

Past Weeks' High & Low Weather Summary

 TemperatureHumidityPressure
High60 °F (Feb 23, 1:00 PM)96% (Feb 22, 11:00 PM)30.37 "Hg (Feb 22, 11:00 PM)
Low33 °F (Feb 21, 7:00 AM)29% (Feb 28, 2:00 PM)29.64 "Hg (Mar 1, 3:00 PM)
Average46 °F68%30.05 "Hg
* Reported Feb 16 7:00 PM — Mar 3 7:00 PM, Tsu, Weather by CustomWeather, © 2015

Note: Actual official high and low records may vary slightly from our data, if they occured in-between our weather recording intervals... More about our weather records

Advertising

Tsu weather history for previous 24 hours

 ConditionsComfort  
Time TempWeatherWind HumidityBarometerVisibility
7:00 PM
Tue, Mar 3
44 °FQuite cool.5 mph86%29.93 "HgN/A
6:00 PM45 °FCool.3 mph75%29.93 "HgN/A
5:00 PM46 °FCool.1 mph67%29.96 "HgN/A
4:00 PM47 °FCool.3 mph60%30.00 "HgN/A
3:00 PM47 °FOvercast.5 mph52%30.02 "Hg9 mi
2:00 PM48 °FCool.2 mph39%30.06 "HgN/A
1:00 PM46 °FCool.7 mph58%30.08 "HgN/A
12:00 PM45 °FQuite cool.7 mph56%30.14 "HgN/A
11:00 AM44 °FQuite cool.6 mph55%30.16 "HgN/A
10:00 AM43 °FQuite cool.2 mph59%30.19 "HgN/A
9:00 AM40 °FOvercast.2 mph69%30.15 "Hg9 mi
8:00 AM38 °FChilly.5 mph73%30.16 "HgN/A
7:00 AM35 °FChilly.3 mph80%30.12 "HgN/A
5:00 AM35 °FChilly.5 mph84%30.10 "HgN/A
3:00 AM37 °FChilly.3 mph79%30.13 "HgN/A
2:00 AM39 °FChilly.5 mph69%30.13 "HgN/A
1:00 AM37 °FChilly.2 mph79%30.16 "HgN/A
12:00 AM39 °FChilly.6 mph75%30.14 "HgN/A
11:00 PM
Mon, Mar 2
40 °FChilly.9 mph71%30.11 "HgN/A
10:00 PM42 °FQuite cool.8 mph61%30.12 "HgN/A
9:00 PM43 °FPassing clouds.9 mph60%30.12 "Hg9 mi
8:00 PM44 °FQuite cool.5 mph61%30.11 "HgN/A
Weather by CustomWeather, © 2015

See weather overviewHow to use our weather pages